Skip Page Navigation
NASA JPL Caltech
NASA Logo - Jet Propulsion Laboratory + View the NASA Portal
+ Center for Near-Earth Object Studies
JPL Home Earth Solar System Stars & Galaxies Technology
JPL Solar System Dynamics
BODIES ORBITS EPHEMERIDES TOOLS PHYSICAL DATA DISCOVERY FAQ SITE MAP
JPL Small-Body Database Browser
Search: [ help ]  
266178 (2006 VF19)
Classification: Main-belt Asteroid          SPK-ID: 2266178
Ephemeris | Orbit Diagram | Orbital Elements | Mission Design | Physical Parameters | Discovery Circumstances | Close-Approach Data ]

[ show orbit diagram ]
Orbital Elements at Epoch 2459000.5 (2020-May-31.0) TDB
Reference: JPL 11 (heliocentric ecliptic J2000)
 Element Value Uncertainty (1-sigma)   Units 
e .09026514185484646 8.8912e-08  
a 2.257320917966024 1.7337e-08 au
q 2.053563525093909 1.9468e-07 au
i 3.601536741100969 5.813e-06 deg
node 258.4162115346567 0.00013655 deg
peri 275.3205979221563 0.00014055 deg
M 246.6038403532784 3.589e-05 deg
tp 2459390.697274825938
(2021-Jun-25.19727483)
0.00012564 TDB
period 1238.763458788782
3.39
1.4271e-05
3.907e-08
d
yr
n .2906123824091444 3.348e-09 deg/d
Q 2.46107831083814 1.8902e-08 au
  Orbit Determination Parameters
   # obs. used (total)      170  
   data-arc span      5808 days (15.90 yr)  
   first obs. used      2003-12-21  
   last obs. used      2019-11-15  
   planetary ephem.      DE431  
   SB-pert. ephem.      SB431-N16  
   condition code      0  
   norm. resid. RMS      .68231  
   source      ORB  
   producer      Otto Matic  
   solution date      2019-Dec-14 17:21:48  

Additional Information
 Earth MOID = 1.06195 au 
 Jupiter MOID = 2.51688 au 
 T_jup = 3.614 
[ hide covariance matrix ]
Orbital Elements at Epoch 2456970.5 (2014-Nov-09.0) TDB
Reference: JPL 11 (heliocentric ecliptic J2000)
 Element Value Uncertainty (1-sigma)   Units 
e .08977081104805228 8.9097e-08  
q 2.054615122200556 1.95e-07 au
tp 2456912.973811414485
(2014-Sep-12.47381141)
0.00011493 TDB
node 258.4475658019692 0.00013664 deg
peri 275.3088572722904 0.00014067 deg
i 3.59994359398107 5.812e-06 deg
  Orbit Determination Parameters
   # obs. used (total)      170  
   data-arc span      5808 days (15.90 yr)  
   first obs. used      2003-12-21  
   last obs. used      2019-11-15  
   planetary ephem.      DE431  
   SB-pert. ephem.      SB431-N16  
   condition code      0  
   norm. resid. RMS      .68231  
   source      ORB  
   producer      Otto Matic  
   solution date      2019-Dec-14 17:21:48  

Additional Information
 Jupiter MOID = 2.51688 au 
 T_jup = 3.614 
Orbit Covariance (6×6)
  e q tp node peri i
e 7.938277974221373E-15 -1.732606315810014E-14 1.53624106443679E-12 4.722459742485787E-14 5.602728083985503E-13 -3.294157309035212E-15
q -1.732606315810014E-14 3.802346385007564E-14 -2.947362933154303E-12 -1.074687220218954E-13 -1.103117148197596E-12 7.536269896547501E-15
tp 1.53624106443679E-12 -2.947362933154303E-12 1.32079780994729E-8 -2.409605389518655E-11 3.924540376424375E-9 -1.77990726773344E-12
node 4.722459742485787E-14 -1.074687220218954E-13 -2.409605389518655E-11 1.867039121116076E-8 -1.863937025603979E-8 -8.002532271890707E-11
peri 5.602728083985503E-13 -1.103117148197596E-12 3.924540376424375E-9 -1.863937025603979E-8 1.978723778504327E-8 7.931183158462073E-11
i -3.294157309035212E-15 7.536269896547501E-15 -1.77990726773344E-12 -8.002532271890707E-11 7.931183158462073E-11 3.377933840198749E-11

Ephemeris | Orbit Diagram | Orbital Elements | Mission Design | Physical Parameters | Discovery Circumstances | Close-Approach Data ]

Physical Parameter Table
Parameter Symbol Value Units Sigma Reference Notes
absolute magnitude H 17.5   n/a MPO433728  

266178 (2006 VF19)          Discovered 2006-Nov-09 by Spacewatch at Kitt Peak
Reference: 20110218/Numbers.arcLast Updated: 2011-02-22

[ show close-approach data ]
Ephemeris | Orbit Diagram | Orbital Elements | Mission Design | Physical Parameters | Discovery Circumstances | Close-Approach Data ]
ABOUT SSD CREDITS/AWARDS PRIVACY/COPYRIGHT GLOSSARY LINKS
FirstGov 2020-Sep-20 21:58 UT
(server date/time)  
NASA Home Page
Site Manager:   Ryan S. Park
Webmaster  Alan B. Chamberlin